Date String (YYYY-MM-DD hh:mm:ss) UTC,Instrument flags,Ambient pressure (hPa),Sample flow (lpm),Bypass flow (lpm),Sample temperature (°C),Ambient temperature (°C),ASC tube jacket temperature (°C),LED temperature (°C),Box temperature (°C),Sample RH (%),Span deviation,Mass concentration (μg/m³),Mass concentration (μg/m³),Mass concentration (μg/m³)
DateTimeUTC,F1_M11,P_M11,Q1_M11,Q2_M11,T1_M11,T2_M11,T3_M11,T4_M11,T5_M11,U1_M11,ZSPAN_M11,X2_M11,X0_M11,X1_M11
2022-07-14 22:00:00,,0829.5,5.01,0.00,29.2,27.4,00.0,37.9,31.0,25.9,0000.0,0004.15,0010.33,0003.53
2022-07-14 22:01:00,,0829.6,4.99,0.00,29.2,27.6,00.0,37.9,31.1,25.8,0000.0,0004.21,0010.91,0003.53
2022-07-14 22:02:00,,0829.5,5.00,0.00,29.3,27.9,00.0,37.9,31.2,25.8,0000.0,0004.25,0011.16,0003.54
2022-07-14 22:03:00,,0829.5,5.00,0.00,29.3,28.0,00.0,37.9,31.2,25.4,0000.0,0004.25,0011.43,0003.54
2022-07-14 22:04:00,,0829.5,5.01,0.00,29.3,27.7,00.0,37.9,31.2,25.3,0000.0,0004.27,0011.43,0003.53
2022-07-14 22:05:00,,0829.5,5.00,0.00,29.3,27.1,00.0,37.9,31.1,25.4,0000.0,0004.23,0011.37,0003.51
2022-07-14 22:06:00,,0829.5,5.00,0.00,29.3,27.0,00.0,37.9,31.1,25.1,0000.0,0004.22,0010.46,0003.50
2022-07-14 22:07:00,,0829.5,5.00,0.00,29.2,27.1,00.0,37.9,31.0,25.0,0000.0,0004.18,0009.69,0003.48
2022-07-14 22:08:00,,0829.5,5.01,0.00,29.2,27.3,00.0,37.9,30.9,25.0,0000.0,0004.17,0009.33,0003.46
2022-07-14 22:09:00,,0829.5,4.99,0.00,29.2,27.5,00.0,37.9,31.0,25.3,0000.0,0004.12,0009.02,0003.43
2022-07-14 22:10:00,,0829.5,5.01,0.00,29.2,27.8,00.0,37.9,31.1,25.1,0000.0,0004.10,0009.85,0003.41
2022-07-14 22:11:00,,0829.5,5.00,0.00,29.3,28.0,00.0,37.9,31.2,24.9,0000.0,0004.08,0010.38,0003.39
2022-07-14 22:12:00,,0829.5,5.00,0.00,29.3,28.2,00.0,37.9,31.3,24.4,0000.0,0004.10,0011.47,0003.38
2022-07-14 22:13:00,,0829.5,4.99,0.00,29.3,27.9,00.0,37.9,31.3,24.6,0000.0,0004.24,0012.59,0003.37
2022-07-14 22:14:00,,0829.5,5.00,0.00,29.3,27.2,00.0,37.9,31.1,24.8,0000.0,0004.23,0013.45,0003.35
2022-07-14 22:15:00,,0829.5,5.01,0.00,29.3,27.0,00.0,37.9,31.1,24.5,0000.0,0004.21,0013.28,0003.34
2022-07-14 22:16:00,,0829.5,5.00,0.00,29.2,27.1,00.0,37.9,31.0,24.9,0000.0,0004.21,0013.30,0003.32
2022-07-14 22:17:00,,0829.5,4.99,0.00,29.2,27.3,00.0,37.9,31.0,25.0,0000.0,0004.22,0014.59,0003.30
2022-07-14 22:18:00,,0829.5,5.01,0.00,29.2,27.5,00.0,37.9,31.0,24.8,0000.0,0004.26,0014.74,0003.30
2022-07-14 22:19:00,,0829.5,4.99,0.00,29.2,27.7,00.0,37.9,31.1,24.6,0000.0,0004.23,0014.89,0003.29
2022-07-14 22:20:00,,0829.5,5.01,0.00,29.3,28.0,00.0,37.9,31.2,24.6,0000.0,0004.16,0015.13,0003.27
2022-07-14 22:21:00,,0829.5,4.99,0.00,29.3,28.1,00.0,37.9,31.3,24.7,0000.0,0004.10,0014.22,0003.26
2022-07-14 22:22:00,,0829.5,5.00,0.00,29.3,27.5,00.0,37.9,31.2,24.7,0000.0,0004.07,0013.43,0003.24
2022-07-14 22:23:00,,0829.5,5.00,0.00,29.3,27.0,00.0,37.9,31.1,24.6,0000.0,0003.99,0012.17,0003.22
2022-07-14 22:24:00,,0829.5,4.99,0.00,29.2,27.0,00.0,37.9,31.0,24.5,0000.0,0003.77,0011.51,0003.19
2022-07-14 22:25:00,,0829.5,5.00,0.00,29.2,27.1,00.0,37.9,30.9,24.2,0000.0,0003.73,0010.23,0003.17
2022-07-14 22:26:00,,0829.4,5.01,0.00,29.2,27.3,00.0,37.9,30.9,24.8,0000.0,0003.70,0010.18,0003.15
2022-07-14 22:27:00,,0829.5,4.99,0.00,29.2,27.6,00.0,37.9,31.0,24.8,0000.0,0003.69,0010.53,0003.14
2022-07-14 22:28:00,,0829.5,5.01,0.00,29.2,27.8,00.0,37.9,31.1,24.2,0000.0,0003.65,0009.98,0003.14
2022-07-14 22:29:00,,0829.5,5.00,0.00,29.3,28.0,00.0,37.9,31.2,23.8,0000.0,0003.60,0010.30,0003.11
2022-07-14 22:30:00,,0829.5,4.99,0.00,29.3,28.1,00.0,37.9,31.3,24.0,0000.0,0003.57,0010.00,0003.07
2022-07-14 22:31:00,,0829.5,5.00,0.00,29.3,27.6,00.0,37.9,31.2,24.0,0000.0,0003.61,0010.07,0003.05
2022-07-14 22:32:00,,0829.5,5.00,0.00,29.3,27.1,00.0,37.9,31.1,24.0,0000.0,0003.66,0010.40,0003.03
2022-07-14 22:33:00,,0829.5,5.00,0.00,29.2,27.0,00.0,37.9,31.0,24.3,0000.0,0003.81,0013.10,0003.03
2022-07-14 22:34:00,,0829.5,5.00,0.00,29.2,27.2,00.0,37.9,31.0,24.9,0000.0,0003.90,0013.77,0003.03
2022-07-14 22:35:00,,0829.5,4.99,0.00,29.2,27.3,00.0,37.9,31.0,24.9,0000.0,0003.94,0013.07,0003.02
2022-07-14 22:36:00,,0829.4,5.01,0.00,29.2,27.6,00.0,37.9,31.0,24.8,0000.0,0003.98,0013.13,0003.04
2022-07-14 22:37:00,,0829.4,5.01,0.00,29.2,27.8,00.0,37.9,31.1,24.9,0000.0,0004.00,0013.23,0003.07
2022-07-14 22:38:00,,0829.5,5.00,0.00,29.3,28.0,00.0,37.9,31.2,25.1,0000.0,0004.01,0012.82,0003.08
2022-07-14 22:39:00,,0829.4,4.99,0.00,29.3,28.2,00.0,37.9,31.3,25.3,0000.0,0004.06,0012.42,0003.11
2022-07-14 22:40:00,,0829.4,5.02,0.00,29.4,28.0,00.0,37.9,31.3,25.0,0000.0,0004.10,0012.15,0003.13
2022-07-14 22:41:00,,0829.4,5.00,0.00,29.3,27.3,00.0,37.9,31.2,24.2,0000.0,0004.14,0012.44,0003.17
2022-07-14 22:42:00,,0829.5,5.00,0.00,29.3,27.0,00.0,37.9,31.1,24.3,0000.0,0004.15,0012.68,0003.20
2022-07-14 22:43:00,,0829.2,5.00,0.00,29.2,27.1,00.0,37.9,31.0,24.3,0000.0,0004.16,0013.49,0003.23
2022-07-14 22:44:00,,0829.3,5.00,0.00,29.2,27.2,00.0,37.9,31.0,22.8,0000.0,0004.02,0010.71,0003.25
2022-07-14 22:45:00,,0829.2,4.99,0.00,29.2,27.4,00.0,37.9,31.0,22.4,0000.0,0004.00,0010.08,0003.29
2022-07-14 22:46:00,,0829.4,5.01,0.00,29.2,27.6,00.0,37.9,31.1,22.4,0000.0,0004.02,0010.90,0003.33
2022-07-14 22:47:00,,0829.2,5.00,0.00,29.3,27.9,00.0,37.9,31.1,22.5,0000.0,0004.05,0010.97,0003.35
2022-07-14 22:48:00,,0829.3,5.00,0.00,29.3,28.1,00.0,37.9,31.2,22.6,0000.0,0004.10,0011.55,0003.37
2022-07-14 22:49:00,,0829.2,5.00,0.00,29.3,28.2,00.0,38.0,31.3,22.0,0000.0,0004.11,0011.73,0003.38
2022-07-14 22:50:00,,0829.2,4.99,0.00,29.4,27.8,00.0,37.9,31.3,21.3,0000.0,0004.12,0011.47,0003.41
2022-07-14 22:51:00,,0829.2,5.01,0.00,29.3,27.2,00.0,37.9,31.2,21.2,0000.0,0004.18,0011.47,0003.43
2022-07-14 22:52:00,,0829.2,4.99,0.00,29.3,27.0,00.0,37.9,31.1,21.5,0000.0,0004.16,0011.18,0003.44
2022-07-14 22:53:00,,0829.3,5.00,0.00,29.2,27.1,00.0,37.9,31.0,22.1,0000.0,0004.15,0010.58,0003.45
2022-07-14 22:54:00,,0829.3,5.01,0.00,29.2,27.3,00.0,37.9,31.0,22.6,0000.0,0004.15,0009.48,0003.45
2022-07-14 22:55:00,,0829.4,5.00,0.00,29.2,27.5,00.0,37.9,31.0,22.6,0000.0,0004.15,0009.52,0003.44
2022-07-14 22:56:00,,0829.5,5.01,0.00,29.3,27.7,00.0,37.9,31.1,22.8,0000.0,0004.17,0009.62,0003.41
2022-07-14 22:57:00,,0829.5,5.00,0.00,29.3,27.9,00.0,38.0,31.2,23.2,0000.0,0004.15,0009.40,0003.39
2022-07-14 22:58:00,,0829.6,5.00,0.00,29.3,28.1,00.0,38.0,31.3,23.3,0000.0,0004.13,0009.58,0003.37
2022-07-14 22:59:00,,0829.6,5.00,0.00,29.4,28.1,00.0,38.0,31.3,23.4,0000.0,0004.06,0009.07,0003.34
